TimeEDT,TemperatureF,Dew PointF,Humidity,Sea Level PressureIn,VisibilityMPH,Wind Direction,Wind SpeedMPH,Gust SpeedMPH,PrecipitationIn,Events,Conditions,WindDirDegrees,DateUTC
12:53 AM,35.1,28.9,78,30.08,10.0,NNW,8.1,-,0.01,,Clear,330,2011-10-30 04:53:00
1:53 AM,33.1,28.0,82,30.10,10.0,NW,6.9,-,0.01,,Clear,320,2011-10-30 05:53:00
2:53 AM,30.9,28.0,89,30.11,10.0,WSW,4.6,-,0.01,,Clear,250,2011-10-30 06:53:00
3:53 AM,28.0,26.1,92,30.19,10.0,Calm,Calm,-,0.01,,Clear,0,2011-10-30 07:53:00
4:53 AM,30.0,27.0,88,30.20,10.0,Calm,Calm,-,0.01,,Clear,0,2011-10-30 08:53:00
5:53 AM,32.0,28.0,85,30.23,10.0,Calm,Calm,-,0.01,,Clear,0,2011-10-30 09:53:00
6:53 AM,28.9,25.0,85,30.25,10.0,Calm,Calm,-,0.01,,Clear,0,2011-10-30 10:53:00
8:53 AM,30.9,28.9,92,30.32,10.0,SSW,3.5,-,0.01,,Clear,210,2011-10-30 12:53:00
9:53 AM,34.0,30.0,85,30.35,10.0,Calm,Calm,-,N/A,,Clear,0,2011-10-30 13:53:00
10:53 AM,39.0,30.0,70,30.35,10.0,Calm,Calm,-,N/A,,Clear,0,2011-10-30 14:53:00
11:53 AM,39.0,30.0,70,30.37,10.0,WNW,3.5,-,0.02,,Clear,290,2011-10-30 15:53:00
12:53 PM,42.1,30.0,62,30.36,10.0,Calm,Calm,-,0.04,,Clear,0,2011-10-30 16:53:00
1:53 PM,43.0,30.0,60,30.34,10.0,Calm,Calm,-,0.06,,Clear,0,2011-10-30 17:53:00
2:53 PM,46.0,27.0,47,30.33,10.0,Calm,Calm,-,0.06,,Clear,0,2011-10-30 18:53:00
3:53 PM,46.0,27.0,47,30.34,10.0,Calm,Calm,-,0.05,,Clear,0,2011-10-30 19:53:00
4:53 PM,46.0,28.0,50,30.34,10.0,Calm,Calm,-,0.02,,Clear,0,2011-10-30 20:53:00
5:53 PM,44.1,28.9,55,30.33,10.0,SE,5.8,-,0.01,,Clear,130,2011-10-30 21:53:00
7:53 PM,41.0,27.0,57,30.36,10.0,ESE,3.5,-,N/A,,Clear,120,2011-10-30 23:53:00
8:53 PM,37.9,28.9,70,30.36,10.0,East,6.9,-,N/A,,Clear,90,2011-10-31 00:53:00
10:53 PM,36.0,28.9,76,30.38,10.0,Calm,Calm,-,N/A,,Clear,0,2011-10-31 02:53:00
11:53 PM,35.1,28.0,76,30.38,10.0,Calm,Calm,-,N/A,,Clear,0,2011-10-31 03:53:00